Location: Unspecified
(52.0000°N, 4.4000°E)
Time: 07:28:01
(UTC+00:00)

BREEZE-M DEB (TANK) - Pass Details

Date: 14 May 2025
Orbit: 288 x 20025 km, 49.3° (Epoch: 22 June)

Event Time Altitude Azimuth Distance (km) Brightness Sun altitude
Rises 19:54:40 0° 251° (WSW) 9,558 9.6 -4.1°
Reaches altitude 10° 20:04:07 10° 251° (WSW) 5,923 8.5 -5.2°
Maximum altitude 20:15:55 62° 174° (S) 971 3.9 -6.6°
Drops below altitude 10° 20:19:09 10° 93° (E) 1,710 4.9 -6.9°
Enters shadow 20:20:08 - 89° (E) 2,170 5.4 -7.0°
